Regional Weather Roundup
Issued by NWS Cleveland, OH

Home | Current Version | Previous Version | Text Only | Print | Product List | Glossary Off
Versions: 1 2 3 4 5 6 7 8 9 10 11 12 13 14 15 16 17 18 19 20 21 22 23 24 25 26 27 28 29 30 31 32 33 34 35 36 37 38 39 40 41 42 43 44 45 46 47 48 49 50

000
ASUS41 KCLE 280910
RWRCLE
OHIO REGIONAL WEATHER ROUNDUP
NATIONAL WEATHER SERVICE CLEVELAND, OH
500 AM EDT TUE JUL 28 2015

NOTE: "FAIR" INDICATES FEW OR NO CLOUDS BELOW 12,000 FEET WITH NO
SIGNIFICANT WEATHER AND/OR OBSTRUCTIONS TO VISIBILITY.

OHZ001>008-015>018-024>027-034-035-043-044-281000-
   NORTHWEST OHIO

CITY           SKY/WX    TMP DP  RH WIND       PRES   REMARKS
DEFIANCE       CLEAR     64  60  87 CALM      30.02S
FINDLAY        CLEAR     69  62  78 NE5       30.00S
TOLEDO EXPRESS CLEAR     63  61  93 CALM      30.01F
TOLEDO EXEC    CLEAR     68  61  78 CALM      30.01F
LIMA           PTCLDY    66  62  87 E3        30.01S
$$

OHZ009>014-019>023-028>033-038-089-281000-
   NORTHEAST OHIO

CITY           SKY/WX    TMP DP  RH WIND       PRES   REMARKS
CLE-HOPKINS    PTCLDY    69  61  75 CALM      30.04R
CLE-LAKEFRONT  CLEAR     73  65  75 E3        30.01R
CUY CO. ARPT   NOT AVBL
LORAIN-ELYRIA  CLEAR     61  59  93 CALM      30.03R
ASHTABULA      CLEAR     60  59  96 CALM      30.05R
AKRON-CANTON   PTCLDY    67  61  81 NE7       30.03R
WOOSTER        CLEAR     61  59  93 CALM      30.04R
MANSFIELD      CLEAR     69  62  78 CALM      30.04R
YOUNGSTOWN     CLEAR     63  61  93 E6        30.04R
$$

OHZ042-051>053-060>062-070>072-077>081-281000-
  SOUTHWEST OHIO

CITY           SKY/WX    TMP DP  RH WIND       PRES   REMARKS
CINC-COVINGTON MOCLDY    75  71  87 CALM      29.98R
CINC-LUNKEN    FOG       70  70 100 CALM      29.98R VSB<1/4
HAMILTON       PTCLDY    70  69  97 CALM      29.98S FOG
DAYTON         PTCLDY    69  66  90 NE3       30.01R
WRIGHT-PAT AFB PTCLDY    72  67  85 NE5       29.99R
DAYTON GENERAL   N/A    N/A N/A N/A MISG      29.98S
WILMINGTON     CLEAR     69  67  93 NE5       30.00R FOG
$$

OHZ036-037-039>041-045>050-054>059-063>069-073>076-082>088-281000-
  CENTRAL AND SOUTHEAST OHIO

CITY           SKY/WX    TMP DP  RH WIND       PRES   REMARKS
COLUMBUS       PTCLDY    72  64  76 CALM      29.99R
OSU AIRPORT    CLEAR     72  65  78 N3        30.00R
BOLTON FIELD   CLEAR     68  66  93 N3        30.01R
RICKENBACK AFB PTCLDY    71  66  84 CALM      29.99R
NEWARK         CLEAR     69  65  86 CALM      30.00R
MARION         CLEAR     65  61  87 CALM      30.02R
LANCASTER      CLEAR     68  65  90 N3        30.00R
ZANESVILLE     CLEAR     68  64  87 CALM      30.00R
NEW PHILLY     CLEAR     65  63  93 CALM      30.02R
$$


USA.gov is the U.S. government's official web portal to all federal, state and local government web resources and services.